Weather History for Banff, AB

Change the Weather History Date:

Tuesday, July 9, 2013

  Actual Average Record
Temperature  
Mean Temperature 58 °F -  
Max Temperature 74 °F - - ()
Min Temperature 41 °F - - ()
Degree Days  
Heating Degree Days 8    
Growing Degree Days 8 (Base 50)    
Moisture  
Dew Point 41 °F    
Average Humidity 61    
Maximum Humidity 99    
Minimum Humidity 26    
Precipitation  
Precipitation 0.00 in - - ()
Sea Level Pressure  
Sea Level Pressure 30.14 in    
Wind  
Wind Speed 4 mph ()    
Max Wind Speed 10 mph    
Max Gust Speed 17 mph    
T = Trace of Precipitation, MM = Missing Value Source: Averaged Metar Reports

Daily Weather History Graph

Daily Weather History Graph

Search for Another Location

Airport:

Trip Planner

Search our weather history database for the weather conditions in past years. The results will help you decide how hot, cold, wet, or windy it might be!

Date:

Astronomy

Jul. 09, 2013 Rise Set
Actual Time 5:38 AM MDT 9:56 PM MDT
Civil Twilight 4:52 AM MDT 10:41 PM MDT
Nautical Twilight 3:46 AM MDT 11:47 PM MDT
Astronomical Twilight 2:19 AM MDT 1:15 AM MDT
Moon 7:23 AM MDT (7/9) 10:15 PM MDT (7/9)
Length of Visible Light 17h 48m
Length of Day
16h 18m
New Moon, 2% of the Moon is Illuminated
Jul 9
New Moon
Jul 15
First Quarter
Jul 22
Full
Jul 29
Last Quarter
Aug 6
New

Hourly Weather History & Observations

Time (MDT) Temp. Windchill Dew Point Humidity Pressure Visibility Wind Dir Wind Speed Gust Speed Precip Events Conditions
12:00 AM 45.9 °F - 44.6 °F 95% 30.18 in - WNW 2.3 mph - N/A   Unknown
1:00 AM 44.1 °F - 43.2 °F 97% 30.19 in - NW 2.3 mph - N/A   Unknown
2:00 AM 44.2 °F - 43.2 °F 96% 30.20 in - NW 2.3 mph - N/A   Unknown
3:00 AM 44.1 °F - 43.0 °F 96% 30.22 in - WSW 2.3 mph - N/A   Unknown
4:00 AM 43.9 °F 41.3 °F 43.5 °F 99% 30.22 in - WSW 4.6 mph - N/A   Unknown
5:00 AM 42.4 °F 40.7 °F 41.4 °F 96% 30.23 in - SSW 3.5 mph - N/A   Unknown
6:00 AM 41.9 °F 40.0 °F 41.4 °F 98% 30.24 in - SW 3.5 mph - N/A   Unknown
7:00 AM 42.4 °F 40.7 °F 40.8 °F 94% 30.25 in - SSW 3.5 mph - N/A   Unknown
8:00 AM 45.3 °F 42.3 °F 41.4 °F 86% 30.26 in - SW 5.8 mph - N/A   Unknown
9:00 AM 50.0 °F - 43.7 °F 79% 30.25 in - SSW 8.1 mph - N/A   Unknown
10:00 AM 56.3 °F - 46.9 °F 71% 30.22 in - WSW 4.6 mph - N/A   Unknown
11:00 AM 61.2 °F - 45.3 °F 56% 30.19 in - WSW 6.9 mph - N/A   Unknown
12:00 PM 67.6 °F - 46.4 °F 46% 30.15 in - SW 6.9 mph - N/A   Unknown
1:00 PM 71.1 °F - 40.8 °F 33% 30.12 in - SW 10.4 mph - N/A   Unknown
2:00 PM 70.0 °F - 42.4 °F 37% 30.11 in - SW 8.1 mph - N/A   Unknown
3:00 PM 73.9 °F - 40.3 °F 30% 30.09 in - West 5.8 mph - N/A   Unknown
4:00 PM 72.9 °F - 38.5 °F 29% 30.08 in - SW 5.8 mph - N/A   Unknown
5:00 PM 72.5 °F - 37.2 °F 28% 30.08 in - WSW 8.1 mph - N/A   Unknown
6:00 PM 74.7 °F - 37.4 °F 26% 30.05 in - West 4.6 mph - N/A   Unknown
7:00 PM 72.5 °F - 36.9 °F 27% 30.03 in - WSW 8.1 mph 17.3 mph N/A   Unknown
8:00 PM 71.2 °F - 37.2 °F 29% 30.01 in - WSW 6.9 mph - N/A   Unknown
9:00 PM 67.8 °F - 38.7 °F 34% 30.00 in - WSW 2.3 mph - N/A   Unknown
10:00 PM 65.7 °F - 39.6 °F 38% 30.00 in - WSW 3.5 mph - N/A   Unknown
11:00 PM 61.3 °F - 41.2 °F 48% 30.00 in - SW 2.3 mph - N/A   Unknown